Simultaneous Nadir Overpasses (SNOs) Predictions

Prediction of SNOs between NOAA-19 and NPP Satellite Orbit:

Table of predicted SNOs for the next 14.0 days since TLE Epoch: 11/17/2014
Index Date (NOAA-19) Time (NOAA-19) Lat,Lon (NOAA-19) SZA (NOAA-19 ) Date (NPP) Time (NPP) Lat,Lon (NPP) SZA (NPP ) Distance(km) Time Diff (sec)
1 11/17/2014 14:39:53 -80.87, 92.13 77.64 11/17/2014 14:40:52 -80.87, 92.31 77.69 3.20 59
2 11/17/2014 15:30:50 80.86,-100.19 102.32 11/17/2014 15:31:37 80.87,-100.37 102.32 3.28 47
3 11/17/2014 16:21:55 -80.86, 67.07 77.68 11/17/2014 16:22:21 -80.85, 67.24 77.72 3.03 26
4 11/17/2014 17:12:53 80.86,-125.61 102.32 11/17/2014 17:13:06 80.85,-125.44 102.29 3.22 13
5 11/17/2014 18:03:57 -80.84, 42.01 77.73 11/17/2014 18:03:50 -80.84, 42.17 77.75 2.86 7
6 11/17/2014 18:54:55 80.84,-150.68 102.28 11/17/2014 18:54:35 80.84,-150.51 102.27 3.10 20
7 11/17/2014 19:45:59 -80.83, 16.95 77.77 11/17/2014 19:45:19 -80.82, 17.09 77.77 2.69 40
8 11/17/2014 20:36:57 80.82,-175.74 102.24 11/17/2014 20:36:04 80.82,-175.58 102.24 2.98 53
9 11/17/2014 21:28:01 -80.81, -8.12 77.81 11/17/2014 21:26:48 -80.80, -7.98 77.80 2.53 73
10 11/30/2014 12:13:37 -80.90, 128.24 74.88 11/30/2014 12:14:50 -80.90, 128.16 74.90 1.52 73
11 11/30/2014 13:04:32 80.88, -64.07 105.08 11/30/2014 13:05:34 80.88, -64.22 105.07 2.62 62
12 11/30/2014 13:55:39 -80.88, 103.17 74.92 11/30/2014 13:56:19 -80.88, 103.09 74.93 1.60 40
13 11/30/2014 14:46:35 80.88, -89.51
